Waarnemingen

Advertentie
Mijn weer
Barcelona/Aeropuerto, Spanje (8181): temperatuur & dauwpunt: 07.11.2019 06:00:00 - 13.11.2019 06:00:00 (CET)Barcelona/Aeropuerto, Spanje (8181): windsnelheid: 07.11.2019 06:00:00 - 13.11.2019 06:00:00 (CET)Barcelona/Aeropuerto, Spanje (8181): windrichting: 07.11.2019 06:00:00 - 13.11.2019 06:00:00 (CET)Barcelona/Aeropuerto, Spanje (8181): luchtdruk: 07.11.2019 06:00:00 - 13.11.2019 06:00:00 (CET)Barcelona/Aeropuerto, Spanje (8181): zicht: 07.11.2019 06:00:00 - 13.11.2019 06:00:00 (CET)
Datum & Tijd tt [°C] td [°C] ff [km/u] ff [kn] dd ppp [hPa] vv [km]
13.11.2019 06:00:00 10,3 5,4 13 7 NNW 1004,5 30
13.11.2019 05:00:00 9,2 5,2 11 6 N 1004,5 30
13.11.2019 04:00:00 9,2 5,0 5 3 NNW 1004,6 30
13.11.2019 03:00:00 9,7 5,1 11 6 NNW 1005,3 30
13.11.2019 02:00:00 10,3 5,1 9 5 NNO 1005,3 30
13.11.2019 01:00:00 11,4 5,0 8 4 NNW 1005,9 30
13.11.2019 00:00:00 12,0 4,9 11 6 WNW 1006,2 30
12.11.2019 23:00:00 10,6 4,9 9 5 NW 1006,6 30
12.11.2019 22:00:00 12,9 4,8 11 6 NNW 1006,6 30
12.11.2019 21:00:00 13,1 4,8 11 6 N 1006,4 30
12.11.2019 20:00:00 14,1 3,8 2 1 Z 1006,4 30
12.11.2019 19:00:00 15,0 3,4 4 2 ZW 1006,2 50
12.11.2019 18:00:00 15,8 2,7 18 10 WNW 1006,1 30
12.11.2019 17:00:00 17,5 1,9 15 8 WNW 1005,9 30
12.11.2019 16:00:00 18,7 1,4 16 9 WNW 1006,0 50
12.11.2019 15:00:00 18,7 0,0 13 7 NNW 1006,2 23
12.11.2019 14:00:00 17,9 1,6 8 4 Z 1007,0 30
12.11.2019 13:00:00 16,6 2,9 15 8 WZW 1008,4 55
12.11.2019 12:00:00 16,1 1,1 16 9 N 1009,4 30
12.11.2019 11:00:00 15,2 2,9 2 1 ONO 1009,9 20
12.11.2019 10:00:00 13,0 2,5 2 1 NW 1009,9 60
12.11.2019 09:00:00 10,1 3,4 11 6 NNO 1010,0 18
12.11.2019 08:00:00 8,9 2,9 13 7 N 1009,9 30
12.11.2019 07:00:00 8,8 3,0 18 10 N 1010,0 20
12.11.2019 06:00:00 8,6 3,0 11 6 N 1010,3 30
12.11.2019 05:00:00 9,1 3,5 15 8 N 1010,3 29
12.11.2019 04:00:00 9,2 4,3 15 8 N 1010,1 25
12.11.2019 03:00:00 9,7 4,9 18 10 N 1010,4 30
12.11.2019 02:00:00 10,3 5,5 16 9 N 1010,4 30
12.11.2019 01:00:00 10,4 5,8 16 9 N 1010,6 28
12.11.2019 00:00:00 10,4 5,8 18 10 N 1010,6 30
11.11.2019 23:00:00 10,7 5,2 16 9 N 1010,6 30
11.11.2019 22:00:00 11,4 5,3 13 7 N 1010,5 28
11.11.2019 21:00:00 11,8 4,6 13 7 NNW 1010,4 30
11.11.2019 20:00:00 11,7 4,2 9 5 NNW 1010,1 30
11.11.2019 19:00:00 12,9 4,3 11 6 NNW 1010,4 30
11.11.2019 18:00:00 13,1 2,3 11 6 NNW 1010,4 30
11.11.2019 17:00:00 14,4 0,2 16 9 NNW 1010,1 30
11.11.2019 16:00:00 16,4 3,6 8 4 W 1009,7 20
11.11.2019 15:00:00 16,5 3,0 13 7 N 1009,6 30
11.11.2019 14:00:00 15,7 2,7 21 11 N 1009,5 30
11.11.2019 13:00:00 14,4 2,6 22 12 N 1010,1 30
11.11.2019 12:00:00 11,9 2,5 28 15 N 1011,2 30
11.11.2019 11:00:00 10,3 2,2 29 16 N 1011,6 30
11.11.2019 10:00:00 9,1 1,8 31 17 N 1011,8 30
11.11.2019 09:00:00 7,6 1,2 28 15 N 1011,3 30
11.11.2019 08:00:00 7,0 0,9 24 13 N 1011,1 30
11.11.2019 07:00:00 6,8 0,9 24 13 N 1010,9 30
11.11.2019 06:00:00 6,7 1,2 21 11 N 1011,3 30
11.11.2019 05:00:00 6,8 1,5 16 9 NNO 1011,4 30
11.11.2019 04:00:00 7,5 1,4 26 14 N 1011,4 30
11.11.2019 03:00:00 7,5 1,8 18 10 N 1011,8 30
11.11.2019 02:00:00 7,5 2,4 21 11 N 1011,7 30
11.11.2019 01:00:00 7,9 3,1 18 10 N 1011,9 30
11.11.2019 00:00:00 8,3 3,1 21 11 N 1011,2 30
10.11.2019 23:00:00 8,9 3,5 16 9 N 1011,4 30
10.11.2019 22:00:00 9,6 3,8 11 6 N 1010,8 30
10.11.2019 21:00:00 9,7 4,3 8 4 NNW 1010,7 30
10.11.2019 20:00:00 10,9 4,1 9 5 N 1010,7 30
10.11.2019 19:00:00 12,0 4,5 9 5 NNO 1010,3 35
10.11.2019 18:00:00 12,9 6,7 11 6 ONO 1009,2 30
10.11.2019 17:00:00 14,1 7,2 16 9 O 1008,6 30
10.11.2019 16:00:00 16,1 2,2 15 8 NNW 1007,7 35
10.11.2019 15:00:00 16,2 2,0 15 8 NNW 1007,8 30
10.11.2019 14:00:00 15,8 3,2 15 8 NNW 1007,8 30
10.11.2019 13:00:00 14,7 5,0 13 7 NW 1008,7 35
10.11.2019 12:00:00 13,6 8,6 13 7 W 1009,7 30
10.11.2019 11:00:00 11,6 8,4 9 5 NNW 1010,0 30
10.11.2019 10:00:00 10,3 8,6 11 6 NW 1010,2 30
10.11.2019 09:00:00 9,4 8,2 4 2 W 1010,4 30
10.11.2019 08:00:00 9,7 8,0 5 3 NO 1009,5 30
10.11.2019 07:00:00 9,9 7,4 8 4 O 1009,2 40
10.11.2019 06:00:00 9,5 7,9 13 7 NNO 1008,3 11
10.11.2019 05:00:00 11,5 7,4 21 11 NNW 1008,3 20
10.11.2019 04:00:00 12,2 6,9 13 7 N 1008,4 30
10.11.2019 03:00:00 12,4 6,8 8 4 NNW 1008,8 30
10.11.2019 02:00:00 12,3 5,5 9 5 N 1009,0 30
10.11.2019 01:00:00 12,7 5,1 11 6 W 1009,2 35
10.11.2019 00:00:00 13,3 5,0 15 8 W 1009,6 30
09.11.2019 23:00:00 13,8 4,5 15 8 WZW 1010,4 30
09.11.2019 22:00:00 14,0 4,3 18 10 W 1010,7 30
09.11.2019 21:00:00 13,6 4,4 16 9 W 1011,3 30
09.11.2019 20:00:00 13,6 5,0 13 7 W 1011,9 30
09.11.2019 19:00:00 13,0 5,4 13 7 W 1012,5 30
09.11.2019 18:00:00 14,9 5,2 8 4 ZW 1012,1 30
09.11.2019 17:00:00 15,5 6,0 2 1 NW 1012,3 30
09.11.2019 16:00:00 16,1 5,2 11 6 Z 1012,9 30
09.11.2019 15:00:00 16,1 5,7 9 5 ZW 1013,3 30
09.11.2019 14:00:00 16,7 4,0 13 7 ZZW 1013,4 30
09.11.2019 13:00:00 16,9 3,0 18 10 N 1013,8 30
09.11.2019 12:00:00 15,9 4,2 15 8 NW 1014,6 30
09.11.2019 11:00:00 13,9 4,1 18 10 N 1015,0 30
09.11.2019 10:00:00 12,3 4,0 24 13 NNW 1015,1 50
09.11.2019 09:00:00 10,9 3,9 26 14 NNW 1014,9 30
09.11.2019 08:00:00 9,0 3,6 13 7 N 1015,0 30
09.11.2019 07:00:00 8,5 3,3 9 5 NNO 1014,4 30
09.11.2019 06:00:00 8,9 3,3 21 11 N 1013,5 30
09.11.2019 05:00:00 8,5 2,7 11 6 NO 1012,7 30
09.11.2019 04:00:00 7,5 2,6 4 2 NO 1012,4 30
09.11.2019 03:00:00 8,7 2,7 4 2 OZO 1012,6 30
09.11.2019 02:00:00 9,2 2,5 5 3 NO 1012,3 30
09.11.2019 01:00:00 9,9 2,3 5 3 Z 1012,1 30
09.11.2019 00:00:00 10,1 2,0 18 10 WNW 1011,8 10
08.11.2019 23:00:00 9,9 2,0 9 5 NW 1011,7 30
08.11.2019 22:00:00 10,1 2,2 8 4 NO 1011,3 30
08.11.2019 21:00:00 10,4 2,0 9 5 WNW 1010,5 30
08.11.2019 20:00:00 11,3 1,9 11 6 W 1009,6 30
08.11.2019 19:00:00 11,9 2,3 22 12 NW 1008,8 35
08.11.2019 18:00:00 13,2 1,8 42 23 WNW 1008,1 30
08.11.2019 17:00:00 14,1 2,0 28 15 WNW 1008,1 30
08.11.2019 16:00:00 15,1 1,4 35 19 NW 1007,0 45
08.11.2019 15:00:00 15,7 2,1 35 19 NW 1006,9 30
08.11.2019 14:00:00 15,1 1,8 26 14 NW 1006,6 30
08.11.2019 13:00:00 14,4 1,9 22 12 NW 1007,5 45
08.11.2019 12:00:00 13,5 2,0 21 11 NW 1008,0 30
08.11.2019 11:00:00 13,4 1,5 22 12 NW 1008,1 30
08.11.2019 10:00:00 12,6 1,4 29 16 WNW 1008,2 50
08.11.2019 09:00:00 11,6 0,7 11 6 NW 1008,0 30
08.11.2019 08:00:00 10,4 0,2 22 12 NW 1007,3 45
08.11.2019 07:00:00 10,0 0,3 16 9 WNW 1007,0 30
08.11.2019 06:00:00 11,0 -0,2 4 2 ZZW 1006,3 30
08.11.2019 05:00:00 11,0 0,5 9 5 W 1005,9 30
08.11.2019 04:00:00 10,6 1,9 8 4 W 1006,0 30
08.11.2019 03:00:00 10,5 3,7 15 8 W 1006,6 30
08.11.2019 02:00:00 10,6 3,6 9 5 W 1006,7 30
08.11.2019 01:00:00 9,3 3,5 9 5 W 1006,7 30
08.11.2019 00:00:00 9,3 3,1 4 2 N 1007,3 30
07.11.2019 23:00:00 9,9 2,8 5 3 NW 1007,2 30
07.11.2019 22:00:00 11,7 3,2 5 3 N 1007,0 30
07.11.2019 21:00:00 13,4 2,8 9 5 NNO 1007,2 30
07.11.2019 20:00:00 14,2 2,0 9 5 W 1007,1 30
07.11.2019 19:00:00 14,9 4,1 8 4 W 1006,6 30
07.11.2019 18:00:00 15,6 6,2 11 6 WZW 1006,4 30
07.11.2019 17:00:00 17,2 4,5 18 10 WNW 1006,3 30
07.11.2019 16:00:00 17,6 9,2 18 10 WZW 1006,1 30
07.11.2019 15:00:00 18,2 8,8 24 13 WZW 1006,2 30
07.11.2019 14:00:00 18,4 7,0 24 13 W 1006,6 30
07.11.2019 13:00:00 18,2 7,4 22 12 W 1007,1 30
07.11.2019 12:00:00 19,1 7,5 24 13 W 1007,7 30
07.11.2019 11:00:00 18,7 6,4 11 6 W 1007,9 30
07.11.2019 10:00:00 17,0 6,4 9 5 W 1008,2 30
07.11.2019 09:00:00 13,9 7,0 8 4 NW 1007,8 30
07.11.2019 08:00:00 10,9 5,8 15 8 NW 1007,7 30
07.11.2019 07:00:00 10,7 5,4 4 2 NO 1007,5 30
07.11.2019 06:00:00 10,1 5,7 5 3 NNO 1007,8 26

tt = temperatuur
td = dauwpunt
ff = windsnelheid
dd = windrichting
ppp = luchtdruk
vv = zicht

Weerstations in de omgeving